Location: Chard
(45.9445°N, 2.4770°E)
Time: 15:50:00
(UTC+00:00)

Daily predictions for brighter satellites

Satellite Brightness Start Highest point End
(mag) Time Altitude Azimuth Time Altitude Azimuth Time Altitude Azimuth
Cosmos 2082 4.2 19:53:27 10° NNW 19:58:55 48° ENE 20:04:20 10° SE
Meteor 1-11 Rocket 3.9 19:54:24 10° N 20:00:24 69° ENE 20:06:18 10° SSE
Cosmos 2263 Rocket 3.4 19:57:00 10° N 20:01:50 29° NE 20:06:36 10° ESE
Cosmos 1470 Rocket 3.6 19:58:25 10° N 20:02:43 62° E 20:06:59 10° SSE
Cosmos 1656 4.4 19:57:36 10° SW 20:03:06 60° WNW 20:08:34 10° NNE
Cosmos 1743 3.1 20:02:16 10° N 20:05:55 44° ENE 20:09:32 10° SSE
Ariane Rocket 3.3 20:01:14 10° SE 20:06:09 53° ENE 20:11:06 10° N
BREEZE-M DEB (TANK) 2.6 20:07:19 10° W 20:10:34 55° NNW 20:12:42 10° ENE
SPOT 5 4.4 20:07:13 10° ESE 20:11:27 25° ENE 20:15:35 10° N
IRAS Rocket 4.4 20:06:56 10° NNE 20:12:30 57° ESE 20:18:01 10° S
Terra 3.7 20:10:09 10° E 20:13:12 17° ENE 20:16:15 10° NNE
Resurs 01 Rocket 1.6 20:10:27 10° SSE 20:14:50 79° ENE 20:19:16 10° N
Aureole 1 Rocket 2.1 20:13:03 10° S 20:16:14 60° ESE 20:19:10 10° NNE
Cosmos 1515 Rocket 3.6 20:12:48 10° S 20:17:06 64° E 20:21:29 10° NNE
Cosmos 2227 Rocket 2.7 20:14:33 10° NNW 20:20:08 59° WSW 20:25:41 10° S
Landsat 7 4.3 20:15:41 10° S 20:20:20 61° W 20:25:02 10° NNW
Cosmos 921 Rocket 3.5 20:17:01 10° N 20:21:26 51° ENE 20:25:38 11° SE
PSLV R/B 4.0 20:18:52 10° NNE 20:22:56 83° WNW 20:26:57 10° SSW
Cosmos 1980 Rocket 2.3 20:23:28 10° S 20:28:57 57° ESE 20:34:30 10° NNE
CARTOSAT-1 3.8 20:26:14 11° SSE 20:30:19 53° ENE 20:34:32 10° N
Cosmos 1869 Rocket 4.4 20:26:49 10° N 20:31:00 37° ENE 20:34:33 13° SE
Cosmos 2228 Rocket 4.0 20:29:01 11° SSE 20:32:53 31° E 20:36:54 10° NNE
Cosmos 1464 Rocket 4.0 20:27:40 10° S 20:33:51 79° E 20:40:02 10° N
ARGOS Delta rocket 4.3 20:31:14 10° N 20:36:46 85° WNW 20:42:10 10° SSW
Cosmos 2344 3.5 20:29:30 10° SSW 20:37:01 71° ESE 20:44:35 10° NE
Cosmos 2322 Rocket 3.9 20:36:17 11° ESE 20:38:04 13° E 20:40:26 10° ENE
ISS -3.0 20:35:00 10° WNW 20:38:16 48° NNE 20:41:27 10° E
Cosmos 2369 3.7 20:32:59 10° SSW 20:38:37 77° ESE 20:44:17 10° NNE
Cosmos 1354 Rocket 4.1 20:34:21 10° S 20:39:30 60° ESE 20:44:44 10° NNE
Spot 2 Rocket 4.1 20:35:42 13° SE 20:39:52 43° ENE 20:44:38 10° N
SPOT 3 Rocket 3.6 20:36:10 11° SSE 20:40:59 69° ENE 20:46:08 10° N
Cosmos 773 Rocket 4.2 20:35:55 10° NNW 20:41:06 59° ENE 20:45:19 15° SE
Cosmos 1536 3.4 20:37:34 10° NNW 20:41:32 59° W 20:45:30 10° S
ATLAS 2AS CENTAUR R/B 3.1 20:34:08 10° SSW 20:41:42 55° ESE 20:49:04 10° NE
Okean 1 3.5 20:40:13 10° S 20:44:06 53° E 20:48:02 10° NNE
Meteor 1-19 Rocket 4.2 20:40:52 10° S 20:46:10 57° E 20:51:29 10° NNE
H-2A R/B 3.6 20:42:41 10° N 20:46:28 37° WNW 20:50:15 10° SW
NOSS 3-4 (A) 4.2 20:40:55 10° WSW 20:46:33 55° NW 20:52:41 10° NE
NOSS 3-4 (C) 4.2 20:40:57 10° WSW 20:46:36 56° NW 20:52:46 10° NE
Cosmos 1092 Rocket 4.4 20:41:23 10° N 20:47:20 47° ENE 20:52:05 16° SE
RESURS DK-1 2.6 20:43:53 10° S 20:47:49 45° ESE 20:51:46 10° NE
Cosmos 1697 Rocket 3.5 20:42:18 10° SW 20:47:52 57° WNW 20:53:27 10° NNE
Nadezhda 4 Rocket 4.0 20:41:59 10° N 20:48:15 81° E 20:54:08 11° S
USA 245 4.5 20:42:54 12° SSE 20:48:26 78° ENE 20:54:51 10° N
SL-4 R/B 3.2 20:45:03 10° WNW 20:49:11 35° SW 20:52:09 16° SSE
Meteor 2-14 Rocket 4.5 20:45:06 10° N 20:51:11 73° E 20:56:34 14° SSE
ATLAS CENTAUR R/B 4.2 20:53:26 10° N 20:56:09 15° NNE 20:58:49 10° ENE
Cosmos 2297 Rocket 4.3 20:52:23 10° NW 20:56:28 21° W 21:00:32 10° SSW
ARIANE 5 R/B 3.8 20:53:39 16° ESE 20:56:28 31° ENE 21:00:26 10° N
MetOp-B 4.4 20:52:35 10° S 20:57:52 70° WSW 21:03:14 10° NNW
Cosmos 44 Rocket 3.8 20:53:32 10° NNW 20:58:08 49° NE 21:01:28 17° ESE
Cosmos 1184 Rocket 4.2 21:00:42 10° SW 21:03:30 35° WNW 21:06:20 10° N
Cosmos 158 Rocket 4.2 21:00:53 10° NNW 21:05:57 57° ENE 21:09:24 21° SE
ATLAS 3B R/B 3.4 20:59:58 10° NNW 21:07:06 52° NE 21:13:24 15° ESE
Meteor 2-9 Rocket 4.3 21:01:43 10° NNW 21:07:32 87° W 21:12:06 16° S
NOSS 2-1 (E) 3.9 21:08:10 24° ESE 21:08:10 24° ESE 21:10:43 10° ENE
Cosmos 1975 3.1 21:07:27 10° N 21:11:27 53° ENE 21:13:33 25° SE
Timation 2 Rocket 4.4 21:05:13 10° NNW 21:11:44 65° WSW 21:17:06 17° S
Cosmos 2026 Rocket 4.1 21:06:32 10° N 21:12:40 63° E 21:17:00 20° SSE
Cosmos 389 Rocket 4.3 21:09:44 10° NW 21:12:44 26° W 21:15:43 10° SSW
ERS-1 Rocket 3.0 21:12:32 21° SSE 21:15:57 76° ENE 21:21:00 10° N
SL-16 R/B 2.8 21:13:28 19° SSE 21:16:49 37° ESE 21:22:00 10° NE
CZ-4B R/B 4.2 21:14:49 10° NNW 21:17:03 18° WNW 21:19:15 10° WSW
Meteor 1-4 Rocket 4.3 21:16:09 10° NNE 21:18:37 18° ENE 21:19:36 16° E
Cosmos 1538 Rocket 4.3 21:16:09 10° NNW 21:21:19 55° ENE 21:24:18 24° SE
Helios 1A Rocket 3.1 21:19:01 21° S 21:21:36 65° WSW 21:25:36 10° NNW
GENESIS II 4.4 21:20:46 21° S 21:23:02 48° ESE 21:26:50 10° NE
CZ-2C R/B 3.8 21:19:34 10° NNE 21:24:21 71° ESE 21:27:47 19° S
Cosmos 1733 Rocket 3.5 21:21:25 10° N 21:25:44 47° ENE 21:27:44 28° SE
Meteor 2-8 Rocket 4.5 21:25:01 20° S 21:29:20 64° E 21:35:21 10° NNE
OE (NEXTSAT) 4.1 21:26:42 10° W 21:30:01 87° S 21:32:08 21° E
SJ 16-02 2.1 21:27:21 10° SW 21:31:37 52° WNW 21:35:55 10° N
Meteor 1-18 Rocket 4.2 21:26:49 13° S 21:31:59 88° W 21:37:39 10° N
SAR-Lupe-4 4.3 21:29:32 10° NNE 21:32:51 34° E 21:33:21 32° ESE
Cosmos 1627 Rocket 4.5 21:27:33 10° N 21:33:49 90° NE 21:38:05 22° S
Cosmos 2278 4.0 21:31:42 10° SSW 21:37:21 71° WNW 21:43:02 10° NNE
Cosmos 2292 Rocket 2.9 21:34:24 10° NNW 21:37:22 59° W 21:38:15 38° SSW
ASTRO F (AKARI) 4.4 21:37:45 39° SSW 21:38:40 62° WSW 21:41:49 10° NNW
Cosmos 1862 Rocket 3.9 21:37:31 32° SSE 21:39:16 51° E 21:43:37 10° NNE
Cosmos 2360 Rocket 3.2 21:40:42 25° SE 21:42:00 27° ESE 21:46:41 10° NE
BREEZE M DEB (TANK) 4.2 21:37:53 10° WNW 21:42:27 65° SSW 21:55:47 17° SE
Cosmos 1726 4.1 21:42:04 10° NNE 21:44:26 16° ENE 21:45:09 15° E
Meteor 2-15 4.4 21:41:00 22° S 21:45:05 77° E 21:51:10 10° NNE
Cosmos 2263 Rocket 2.7 21:40:38 10° NW 21:46:02 52° WSW 21:49:11 24° S
NOSS 2-1 (C) 2.6 21:46:44 28° SW 21:48:20 84° SE 21:51:33 10° NE
SPOT 5 3.7 21:45:43 20° SSW 21:49:14 50° W 21:54:14 10° NNW
Terra 2.0 21:47:56 28° S 21:50:26 66° WSW 21:55:12 10° NNW
Cosmos 1441 Rocket 3.3 21:51:04 45° SE 21:51:41 51° E 21:55:18 10° NNE
Resurs 01 Rocket 4.4 21:50:35 10° WSW 21:51:53 11° W 21:53:11 10° WNW
Cosmos 1346 Rocket 2.8 21:50:23 29° SSW 21:52:19 78° W 21:56:22 10° N
SAR-Lupe-1 3.9 21:50:22 10° NNE 21:53:57 73° ESE 21:54:47 49° S
Cosmos 2279 Rocket 3.9 21:53:29 26° S 21:57:07 74° E 22:03:19 10° NNE
NOSS 2-1 (D) 2.9 21:56:58 24° SW 21:58:48 73° NW 22:02:01 10° NE
Cosmos 990 Rocket 4.2 21:57:54 34° SSE 21:59:55 54° ESE 22:05:02 10° NNE
Cosmos 1680 Rocket 4.3 21:56:00 10° N 22:01:03 42° ENE 22:03:26 27° ESE
USA 215 3.7 21:55:32 10° ENE 22:01:30 36° SE 22:03:43 29° SSE
Iridium 2 3.5 21:59:52 10° N 22:03:39 79° E 22:04:23 55° SSE
Cosmos 1066 Rocket 4.3 22:05:06 33° S 22:07:44 67° E 22:13:22 10° NNE
Cosmos 1818 4.4 22:03:50 10° NNW 22:09:05 45° NE 22:12:08 23° ESE
Iridium 4 Rocket 4.0 22:08:05 10° NNE 22:12:27 41° E 22:13:44 34° ESE
Cosmos 1898 Rocket 3.8 22:11:50 38° SSE 22:13:18 48° ESE 22:18:24 10° NNE
Cosmos 1980 Rocket 4.2 22:08:33 10° WSW 22:13:19 27° NW 22:18:08 10° N
SL-24 R/B - RUBIN 2 4.2 22:10:12 10° NW 22:14:23 43° WSW 22:15:32 36° SSW
ISS -2.6 22:11:53 10° WNW 22:14:21 31° WSW 22:14:21 31° WSW
Okean 1-7 3.4 22:17:25 43° ESE 22:18:06 47° E 22:22:18 10° NNE
Iridium 51 4.0 22:21:01 63° E 22:21:03 63° E 22:24:34 10° N
Cosmos 2322 Rocket 2.1 22:18:01 27° SSW 22:21:12 85° ESE 22:26:51 10° NNE
Cosmos 2180 Rocket 4.4 22:21:19 32° S 22:24:25 90° E 22:30:36 10° N
Okean 3 4.0 22:25:02 41° ESE 22:25:23 42° E 22:29:24 10° NNE
Cosmos 1844 Rocket 2.7 22:20:12 10° NNW 22:25:49 74° ENE 22:27:57 39° SE
Cosmos 2333 Rocket 2.9 22:25:18 33° SE 22:26:09 35° ESE 22:31:15 10° NE
Cosmos 1805 3.2 22:23:59 10° NNW 22:27:53 72° W 22:28:28 59° SSW
BREEZE-M DEB (TANK) 2.6 22:29:17 10° WNW 22:31:52 51° SSW 22:31:52 51° SSW
H-2A R/B 4.4 22:28:43 10° NNE 22:32:20 32° E 22:32:20 32° E
ARIANE 5 R/B 4.1 22:31:11 23° SW 22:32:53 29° W 22:36:50 10° NW
ATLAS 2AS CENTAUR R/B 4.0 22:25:28 10° WSW 22:32:54 46° NW 22:40:05 10° NNE
Meteor 1-23 Rocket 4.5 22:34:01 40° SSE 22:35:53 58° E 22:41:36 10° NNE
ATLAS CENTAUR R/B 2.3 22:31:18 10° NNW 22:36:04 51° NE 22:37:49 33° ESE
USA 267 4.0 22:31:04 10° E 22:37:20 51° NNE 22:43:37 10° NW
Cosmos 1733 3.7 22:37:19 10° NNW 22:40:59 48° W 22:41:23 45° WSW
Cosmos 1766 3.1 22:39:07 10° N 22:43:04 87° E 22:43:23 75° SSE
Cosmos 2219 Rocket 2.8 22:44:47 36° ESE 22:45:29 37° ESE 22:50:36 10° NE
Cosmos 1703 Rocket 3.5 22:48:16 59° SSW 22:49:06 86° WNW 22:53:33 10° N
Cosmos 1844 3.7 22:43:42 10° NNW 22:49:33 87° WSW 22:51:27 45° SSE
Cosmos 372 Rocket 4.1 22:51:17 48° SE 22:52:05 53° ESE 22:57:07 10° NNE
Meteor 1-4 Rocket 3.9 22:50:26 10° NNW 22:53:29 29° W 22:53:35 29° W
ATLAS 3B R/B 3.4 22:50:53 10° NW 22:57:51 46° WSW 23:00:39 33° SSW
Cosmos 1707 3.7 23:00:36 34° E 23:00:36 34° E 23:03:52 10° NNE
SL-16 R/B 3.4 22:55:38 10° WSW 23:00:53 38° NW 23:06:12 10° NNE
Cosmos 1655 Rocket 4.1 22:55:39 10° NNW 23:01:50 68° W 23:04:10 39° SSW
Cosmos 1782 Rocket 3.4 22:59:58 10° N 23:04:20 84° W 23:04:50 69° S
ERS-2 2.6 23:03:49 10° NNE 23:06:52 48° ENE 23:06:52 48° ENE
CZ-4C R/B 3.3 23:01:06 10° NW 23:08:09 62° NE 23:14:17 19° ESE
NOSS 3-1 (C) 4.1 23:01:29 10° NW 23:08:56 81° NE 23:14:02 28° SE
Gblst 52 Del rocket 4.4 23:07:28 10° WSW 23:13:58 80° NNW 23:19:44 10° ENE
Cosmos 2237 Rocket 3.9 23:14:56 17° ESE 23:15:29 17° E 23:19:06 10° ENE
COSMOS 2428 3.0 23:17:54 45° SE 23:18:49 49° ESE 23:24:17 10° NE
Cosmos 1470 2.6 23:15:14 10° N 23:19:01 85° NNE 23:19:01 85° NNE
Cosmos 1726 3.1 23:16:11 10° NNW 23:19:26 36° W 23:19:26 36° W
Cosmos 1300 Rocket 3.4 23:16:06 10° N 23:20:29 78° E 23:20:51 71° SE
Cosmos 2242 Rocket 4.1 23:21:24 44° WSW 23:22:23 52° WNW 23:26:51 10° N
ALOS 2 2.4 23:22:00 70° SSW 23:22:25 79° WSW 23:26:51 10° NNW
Cosmos 2151 Rocket 4.4 23:19:07 10° N 23:23:15 38° ENE 23:23:57 36° E
Cosmos 1937 Rocket 3.9 23:22:46 36° SW 23:24:45 60° WNW 23:29:59 10° NNE
Cosmos 2360 Rocket 2.9 23:22:25 23° WSW 23:25:41 50° WNW 23:31:12 10° NNE
Cosmos 1242 Rocket 3.2 23:22:51 10° N 23:26:07 46° ENE 23:26:07 46° ENE
Okean 2 Rocket 3.6 23:22:59 10° N 23:27:23 49° ENE 23:28:05 45° ESE
Cosmos 405 Rocket 4.4 23:28:20 23° E 23:28:20 23° E 23:30:58 10° NE
In-Cosmos 22 4.2 23:29:31 50° SSE 23:30:48 65° E 23:36:14 10° NNE
Cosmos 2333 4.3 23:29:02 39° SW 23:31:09 72° WNW 23:36:48 10° NNE
Cosmos 1437 Rocket 4.4 23:30:03 10° NNE 23:33:08 23° ENE 23:33:33 23° E
Cosmos 1867 3.6 23:33:44 55° SSE 23:34:36 63° ESE 23:40:02 10° NE
Cosmos 1908 4.1 23:31:11 10° N 23:34:46 39° ENE 23:34:48 39° ENE
Meteor 1-21 4.2 23:34:35 50° S 23:36:09 77° E 23:41:59 10° NNE
Cosmos 1626 2.9 23:37:36 41° ENE 23:37:36 41° ENE 23:40:38 10° NNE
Cosmos 1842 4.2 23:38:57 37° W 23:39:14 38° WNW 23:42:53 10° N
Cosmos 1953 3.7 23:40:40 10° NNE 23:44:12 29° ENE 23:44:46 28° E
USA 215 3.4 23:38:17 10° NE 23:44:51 76° NNW 23:51:00 12° WSW
Cosmos 2278 Rocket 2.9 23:40:25 10° NNW 23:45:56 48° ENE 23:48:51 26° ESE
Cosmos 1674 2.7 23:50:45 72° NE 23:50:45 72° NE 23:54:12 10° N
Cosmos 1818 4.4 23:47:39 10° NW 23:52:32 34° WSW 23:52:45 34° WSW
Sich 1 Rocket 3.5 23:49:18 10° NNW 23:53:42 71° W 23:54:00 68° SW
ADEOS Rocket 2.9 23:52:27 49° SSW 23:53:55 68° WSW 23:59:55 10° NNW
